Tracking 19192 objects as of 20-Jun-2018
HD Live streaming from Space Station
objects crossing your sky now

NAVSTAR 33 (USA 92)

Track NAVSTAR 33 (USA 92) now!
NAVSTAR 33 (USA 92) is classified as:


NORAD ID: 22700
Int'l Code: 1993-042A
Perigee: 21,199.2 km
Apogee: 21,240.7 km
Inclination: 55.3 °
Period: 760.2 minutes
Semi major axis: 27590 km
RCS: 3.4011 m2 (large)
Launch date: June 26, 1993
Source: United States (US)
Launch site: AIR FORCE EASTERN TEST RANGE (AFETR)
aabbcc
Your satellite tracking list
Your tracking list is empty




NASA's NSSDC Master Catalog

Two Line Element Set (TLE):
1 22700U 93042A   18170.61174016 -.00000052 +00000-0 +00000-0 0  9990
2 22700 055.3498 271.0470 0007508 324.3844 101.5993 01.89431849181821
Source of the keplerian elements: AFSPC